www.pogodaiklimat.ru

Погода и климат >> Архив погоды >> Мексика >> Jalapa


ПОГОДА в Jalapa

  • Прогноз погоды в Jalapa
  • Монитор погоды в Jalapa
  • Климат города

АРХИВ ПОГОДЫ в Jalapa

Время (UTC), дата Ветер
(напр.,м/с)
 
Видим.   Явления Облачность Т
(С)
Тd
(С)
f
(%)
Тe
(С)
Тes
(С)
Комфортность P
(гПа)
Po
(гПа)
Тmin
(С)
Tmax
(С)
R
(мм)
R24
(мм)
S
(см)
03 11.10 Ю 1 10 км 8/8 600 м
[Sc]
+18.0 +16.7 92 +19 +19 1008.8 864.2
06 11.10 ЮЗ 1 10 км 8/8 600 м
[Sc]
+17.2 +15.9 92 +18 +18 1011.5 865.5 +17.0 +28.8
12 11.10 Ю 1 10 км ясно +15.4 +14.0 91 +16 +16 1011.6 864.4 +14.4 +28.8
15 11.10 ЮЗ 1 18 км 5/3 900 м
[Sc Ci sp]
+20.0 +16.8 82 +24 +29 комфорт 1015.5 867.6
18 11.10 С 1 18 км 9/8 800 м
[Sc Ci fib]
+26.4 +19.1 64 +32 +35 очень
душно
1013.2 866.5 +14.4 +26.7
21 11.10 С 1 16 км 9/8 840 м
[Sc diur, vesp Ci fib]
+25.6 +21.0 76 +32 +34 очень
душно
1009.8 864.5
00 12.10 СЗ 1 10 км морось {дождь, туман} 10/10 600 м
[Cb cap]
+20.0 +18.6 92 +24 +24 комфорт 1009.7 865.0 12
03 12.10 Ю 1 10 км 8/8 600 м
[Sc]
+18.8 +17.5 92 +21 +21 комфорт 1011.0 866.3
06 12.10 ЮЗ 1 10 км 8/8 600 м
[Sc]
+18.2 +16.9 92 +20 +20 1012.7 867.2 +14.4 +26.7
09 12.10 Ю 1 10 км 5/5 660 м
[Sc diur, vesp]
+18.0 +16.7 92 +19 +19 1013.7 867.2
12 12.10 Ю 1 10 км 5/5 660 м
[Sc diur, vesp]
+16.4 +15.1 92 +17 +17 1013.6 866.1 +15.4 +26.7
15 12.10 В 1 18 км 10/10 720 м
[Sc diur, vesp]
+19.0 +17.6 92 +22 +22 комфорт 1014.8 867.5
18 12.10 В 1 16 км 9/9 720 м
[Sc diur, vesp]
+24.5 +18.5 69 +29 +31 душно 1012.4 865.9 +15.4 +24.8
21 12.10 В 1
{2}
16 км 10/10 720 м
[Sc diur, vesp]
+24.2 +19.8 76 +29 +29 душно 1009.2 864.0
00 13.10 В 1 14 км гроза без осадков {дождь} 10/10 600 м
[Cb calv]
+21.2 +19.3 89 +26 +26 душно 1008.9 864.2 0.0
03 13.10 В 1 6000 м туман на расстоянии 9/9 420 м
[Sc]
+19.4 +18.3 93 +23 +23 комфорт 1010.3 865.7
12 13.10 Ю 1 10 км 3/3 870 м
[Sc]
+16.0 +15.4 96 +17 +17 1011.2 864.5 +15.8 +26.2
15 13.10 ЮЗ 1 20 км 3/0
[Cs]
+19.5 +17.1 86 +23 +29 комфорт 1012.3 865.2
21 13.10 В 1 16 км осадки на расстоянии 8/8 800 м
[Sc diur, vesp]
+25.0 +19.2 70 +30 +32 душно 1007.2 862.5
00 14.10 В 1 14 км осадки на расстоянии 8/8 600 м
[Cb cap]
+22.0 +20.4 91 +28 +28 душно 1006.2 862.4 +15.0 +27.5
03 14.10 В 1 4000 м туман на расстоянии {морось} 10/10 420 м
[Sc]
+20.4 +19.9 97 +26 +26 душно 1007.6 864.0 0.0
12 14.10 В 1 100 м туман {морось} ?/? +19.4 +18.8 96 +23 +23 комфорт 1008.8 863.4 0.1
15 14.10 Ю 1 600 м туман {морось} ?/? +19.2 +18.2 94 +22 +22 комфорт 1010.7 864.8 0.0
18 14.10 С 1 16 км 4/4 600 м
[Cu med, cong]
+24.2 +19.2 74 +29 +41 душно 1009.7 864.2 0.0
21 14.10 В 1 16 км 8/8 800 м
[Sc diur, vesp]
+27.2 +23.3 79 +37 +39 очень
душно
1006.6 862.3
00 15.10 В 1 14 км 9/8 600 м
[Sc diur, vesp Ci fib]
+21.8 +20.9 95 +28 +28 душно 1006.8 862.9 +18.8 +27.5
03 15.10 В 1 3000 м зарница {дождь, туман} 10/10 240 м
[Cb cap]
+21.0 +20.5 97 +27 +27 душно 1008.7 864.8 3
12 15.10 Ю 1 5000 м 9/9 300 м
[St]
+18.8 +18.5 98 +21 +21 комфорт 1009.9 864.3 +18.6 +27.5
15 15.10 В 1
{1}
16 км 9/9 720 м
[Sc diur, vesp]
+20.6 +18.9 90 +26 +26 душно 1011.8 865.7
18 15.10 В 1 16 км 10/10 720 м
[Sc diur, vesp]
+24.4 +19.7 75 +30 +30 очень
душно
1010.9 865.3 +18.4 +24.7
21 15.10 В 1
{2}
16 км 9/9 720 м
[Cb calv]
+25.2 +20.3 74 +31 +32 очень
душно
1008.3 863.7
00 16.10 В 1 14 км 10/10 600 м
[Sc diur, vesp]
+22.0 +20.4 91 +28 +28 душно 1007.5 863.5 +18.4 +26.5
03 16.10 Ю 1 6000 м 9/9 300 м
[St]
+19.6 +18.8 95 +23 +23 комфорт 1010.9 866.4
06 16.10 Ю 1 8000 м 5/5 500 м
[Sc]
+18.8 +17.9 95 +21 +21 комфорт 1011.7 866.7 +18.4 +26.5
09 16.10 Ю 1 10 км зарница 1/1 840 м
[Cb cap]
+17.4 +16.5 94 1011.8 865.9
12 16.10 СЗ 1 12 км 4/4 600 м
[Sc]
+16.4 +16.1 98 +17 +17 1012.3 865.6 +16.4 +26.5
15 16.10 С 1 20 км 5/5 800 м
[Sc]
+21.0 +18.2 84 +26 +30 душно 1014.4 867.2
21 16.10 СЗ 1 16 км 9/8 800 м
[Sc Cs]
+22.6 +18.4 77 +28 +30 душно 1010.4 864.8 0.8
00 17.10 В 1 14 км осадки на расстоянии {дождь} 10/10 600 м
[]
+20.4 +18.4 88 +25 +25 комфорт 1010.5 865.5 0.8
03 17.10 Ю 1 10 км 5/5 660 м
[Sc diur, vesp]
+18.6 +17.3 92 +21 +21 комфорт 1011.6 866.5
12 17.10 ЮЗ 1 10 км 8/8 600 м
[Sc]
+15.8 +13.8 88 +16 +16 1012.9 865.5 +15.0 +24.5
15 17.10 Ю 1 16 км морось 10/8 840 м
[Sc As op]
+19.4 +15.7 79 +22 +23 комфорт 1015.2 867.4 0.0
18 17.10 СЗ 1 18 км {морось, метель} 10/8 600 м
[Sc As op]
+22.4 +13.7 58 +26 +26 жарко 1013.9 866.7 0.5
21 17.10 СЗ 1 18 км морось 10/8 840 м
[Sc As op]
+22.2 +14.9 63 +26 +26 душно 1011.0 865.0 0.0
00 18.10 С 1 16 км морось 10/8 600 м
[Sc As op]
+19.4 +15.3 77 +22 +22 комфорт 1012.0 866.3 0.3

 

Местоположение метеостанции Jalapa (Мексика): широта 19.55 долгота -96.91 высота над уровнем моря 1389 м.

В архиве по умолчанию представлена погода в Jalapa за последнюю неделю. Архивные данные за месяц целиком и за предыдущие месяцы, начиная с января 2011 года, Вы можете получить, выбрав интересующий диапазон дат из раскрывающегося списка и нажав кнопку "Ввод!".


*Определитесь, кто Вы:
робот инопланетянин человек

Внимание! Время в таблицах - всемирное. Для получения местного времени необходимо прибавить поправку, которая в Jalapa равна -6 ч.

Смотрите также архив погоды в соседних городах и на ближайших метеорологических станциях:

Погода в Cordoba-In-Veracruz (Мексика) (72 км)
Погода в Orizaba (Мексика) (80 км)
Погода в Verakruz (Мексика) (95 км)
Погода в Tlaxcala Airport (Мексика) (142 км)
Погода в Puebla (Мексика) (143 км)
Погода в Tlaxcala (Мексика) (143 км)
Погода в Tulancingo (Мексика) (164 км)
Погода в Tuxpan (Мексика) (164 км)
Погода в Pachuca (Мексика) (203 км)
Погода в Huajuapan De Leon (Мексика) (215 км)

Пояснения к столбцам:

Ветер - указаны скорость ветра в м/с - средняя за 10 мин, порывы в срок и между сроками (в фигурных скобках) и направление, откуда дует ветер: С - северный, СВ - северо-восточный, В - восточный, ЮВ - юго-восточный, Ю - южный, ЮЗ - юго-западный, З - западный, СЗ - северо-западный.
Видимость - горизонтальная дальность видимости в метрах или километрах. При видимости от 1 до 10 км при отсутствии осадков обычно наблюдается дымка, при ухудшении видимости до 1 км и менее - туман. В сухую погоду видимость может ухудшаться дымом, пылью или мглою.
Явления - указаны атмосферные явления, наблюдавшиеся в срок или в последний час перед сроком; фигурными скобками обозначены явления, наблюдавшиеся между сроками (за 1-3 часа до срока); квадратными скобками обозначены град или гололедные отложения с указанием их диаметра в мм.
Облачность - указаны через наклонную черту общая и нижняя облачность в баллах и высота нижней границы облаков в метрах; квадратными скобками обозначены формы облаков: Ci - перистые, Cs - перисто-слоистые, Cc - перисто-кучевые, Ac - высококучевые, As - высокослоистые, Sc - слоисто-кучевые, Ns - слоисто-дождевые, Cu - кучевые, Cb - кучево-дождевые. Подробнее классификацию облаков см. в Атласе облаков (PDF).
T - Температура воздуха - температура, измеренная на высоте 2 м над землей.
Td - Температура точки росы - температура, при понижении до которой содержащийся в воздухе водяной пар достигнет насыщения.
f - Относительная влажность воздуха - влажноcть воздуха, измеренная на высоте 2 м над землей.
Te - Эффективная температура - температура, которую ощущает одетый по сезону человек в тени. Характеристика душности погоды. При расчете учитывается влияние влажности воздуха и скорости ветра на теплоощущения человека.
Tes - Эффективная температура на солнце - температура, которую ощущает человек, с поправкой на солнечный нагрев. Характеристика знойности погоды. Зависит от высоты солнца над горизонтом, облачности и скорости ветра. Ночью, в пасмурную погоду, а также при ветре 12 м/с и более поправка равна нулю.
P - Атмосферное давление - приведенное к уровню моря атмосферное давление.
Po - Атмосферное давление - измеренное на уровне метеостанции атмосферное давление.
Tmin - Минимальная температура - минимум температуры воздуха на высоте 2 м над землей.
Tmax - Максимальная температура - максимум температуры воздуха на высоте 2 м над землей.
R - Количество осадков - Количество выпавших осадков за период времени, мм. При наведении курсора мыши на число - период времени, за который выпало указанное количество осадков.
R24 - Количество осадков - Количество выпавших осадков за 24 часа, мм.
S - Снежный покров - Высота снежного покрова, см. При наведении курсора мыши на число - состояние снежного покрова и степень покрытия местности в баллах.